{"data":{"norad_id":60243,"intl_designator":"2024-128J","name":"ROBUSTA-3A (MEDITERRAN*)","alt_names":[],"object_type":"PAYLOAD","status":"ACTIVE","operator":null,"country":"FR","launch_date":"2024-07-09","launch_site_code":"FRGUI","launch_vehicle":null,"mission":null,"orbit_class":"UNKNOWN","rcs_meters":null,"size_class":null,"mass_kg":null,"dimensions":null,"purposes":["tech_demo"],"wikipedia_slug":null,"has_3d_model":false,"image_url":null,"decayed_at":null,"tle_current":{"epoch":"2026-05-25T02:42:46.663776Z","epoch_age_seconds":61789,"freshness":"FRESH","line1":"1 60243U 24128J   26145.11304009  .00008558  00000+0  50682-3 0  9997","line2":"2 60243  61.9869 289.8206 0044560 123.5945 236.9416 15.11263722102935","mean_motion":15.11263722,"eccentricity":0.004456,"inclination_deg":61.9869,"raan_deg":289.8206,"arg_perigee_deg":123.5945,"mean_anomaly_deg":236.9416,"bstar":0.00050682,"rev_number":10293,"period_min":95.284494627735,"perigee_km":501.5518357441,"apogee_km":563.13805082265,"semimajor_km":6910.4819432834,"source":"CELESTRAK","updated_at":"2026-05-25T13:38:25.535845Z"}}}